Regional Weather Roundup
Issued by NWS Jackson, KY

Home | Current Version | Previous Version | Text Only | Print | Product List | Glossary Off
Versions: 1 2 3 4 5 6 7 8 9 10 11 12 13 14 15 16 17 18 19 20 21 22 23 24 25 26 27 28 29 30 31 32 33 34 35 36 37 38 39 40 41 42 43 44 45 46 47 48 49 50

000
ASUS43 KJKL 282210
RWRJKL

EAST KENTUCKY HOURLY WEATHER ROUNDUP
NATIONAL WEATHER SERVICE JACKSON KY
600 PM EDT THU MAY 28 2015

NOTE: "FAIR" INDICATES FEW OR NO CLOUDS BELOW 12,000 FEET WITH
NO SIGNIFICANT WEATHER AND/OR OBSTRUCTIONS TO VISIBILITY.

* THESE REPORTS ARE NOT UNDER NWS QUALITY CONTROL AND MAY NOT
  REPORT WEATHER SUCH AS PRECIPITATION AND FOG.

KYZ079-080-083-085-087-088-110-112-115-119-120-282300
...EASTERN KENTUCKY...

CITY           SKY/WX    TMP DP  RH WIND       PRES   REMARKS
JACKSON        CLOUDY    76  68  76 CALM      30.20F
LONDON         CLOUDY    75  64  68 NE5       30.19F
SOMERSET*      CLOUDY    72  64  78 NE5       30.18F
MONTICELLO*    PTSUNNY   77  70  79 N12       30.19F
MIDDLESBORO*   CLOUDY    76  67  74 CALM      30.19S
HARLAN APT*    MOCLDY    72  63  73 MISG      30.20F
HAZARD APT*    MOCLDY    77  68  73 CALM      30.20S
BLACK MTN*       N/A     66  63  88 CALM        N/A
PIKEVILLE APT* SUNNY     77  66  69 N3        30.21S
BIG SANDY*     MOCLDY    80  65  60 CALM      30.19F
MOREHEAD APT*  PTCLDY    77  64  65 SW5       30.21S
$$

KYZ035-036-041-042-044-050-067-078-099-282300
...CENTRAL KENTUCKY...

CITY           SKY/WX    TMP DP  RH WIND       PRES   REMARKS
MT STERLING*   CLOUDY    77  66  69 CALM      30.20F
FLEMING/MASON* MOSUNNY   79  66  65 S6        30.19F
DANVILLE*      CLOUDY    73  64  73 CALM      30.20F
RICHMOND*      CLOUDY    75  63  64 CALM      30.19S
LEXINGTON      PTSUNNY   76  64  66 S6        30.18F
FRANKFORT      PTSUNNY   73  67  81 SW5       30.16F
$$

KYZ091>093-OHZ055-061-077-WVZ005-015-034-035-042-282300
...SOUTHERN OHIO/WEST VIRGINIA...

CITY           SKY/WX    TMP DP  RH WIND       PRES   REMARKS
COVINGTON      MOSUNNY   81  65  58 S7        30.16F
COLUMBUS       MOSUNNY   81  61  50 SE10      30.17S
DAYTON         MOSUNNY   83  60  45 S7        30.17F
WILMINGTON     SUNNY     79  60  52 S8        30.17S
HUNTINGTON     PTSUNNY   81  64  56 S3        30.17F
CHARLESTON     PTSUNNY   84  62  47 N3        30.17F
PINEVILLE*     PTSUNNY   81  65  59 MISG      30.25F
BECKLEY        PTSUNNY   76  59  55 E3        30.25S
BLUEFIELD      PTSUNNY   78  61  55 E3        30.26F
$$

VAZ002-007-008-TNZ017-027-036-066-071-282300
...SOUTHWEST VIRGINIA/EAST TENNESSEE...

CITY           SKY/WX    TMP DP  RH WIND       PRES   REMARKS
WISE*          PTSUNNY   77  63  61 N6        30.26F
JONESVILLE*    MOCLDY    75  68  78 CALM      30.21F
ABINGDON*      PTSUNNY   73  62  67 W7        30.24R
BRISTOL        PTSUNNY   73  62  68 S8        30.22R THUNDER
KNOXVILLE      CLOUDY    81  64  56 CALM      30.15F
OAK RIDGE      PTSUNNY   82  62  50 CALM      30.17F
CROSSVILLE     PTSUNNY   75  63  66 CALM      30.20F
NASHVILLE      PTSUNNY   84  65  52 S6        30.12F
$$

...KEY TO REMARKS...
VSB - VISIBILITY IN MILES
WCI - WIND CHILL INDEX
HX  - HEAT INDEX

$$



USA.gov is the U.S. government's official web portal to all federal, state and local government web resources and services.